Flag for U.S.A. Weather past 2 weeks in Arden-Arcade, California, U.S.A.

Now
63 °F

Partly sunny.


Feels Like: 63 °F
Forecast: 53 / 85 °F
Wind: 9 mph from South

Location: Mather Field

Current Time: Aug 20, 2014 at 8:31:40 AM

Latest Report: Aug 20, 2014 at 7:55 AM


Visibility: 10 mi

Pressure: 29.88 "Hg

Humidity: 88%

Dew point: 59 °F

Location of Arden-ArcadeLocation

Historic Weather in Arden-Arcade — Graph

°F

Arden-Arcade temperature yesterday

Maximum temperature yesterday: 82 °F (at 2:45 PM)
Minimum temperature yesterday: 57 °F (at 3:45 AM)
Average temperature yesterday: 69 °F

Past Weeks' High & Low Weather Summary

 TemperatureHumidityPressure
High95 °F (Aug 11, 3:45 PM)100% (Aug 10, 4:45 AM)30.04 "Hg (Aug 10, 4:45 AM)
Low54 °F (Aug 10, 4:45 AM)15% (Aug 17, 5:46 PM)29.72 "Hg (Aug 18, 5:48 PM)
Average74 °F55%29.90 "Hg
* Reported Aug 5 6:46 AM — Aug 20 6:45 AM, Arden-Arcade, Weather by CustomWeather, © 2014

Note: Actual official high and low records may vary slightly from our data, if they occured in-between our weather recording intervals... More about our weather records

Advertising

Arden-Arcade weather history for previous 24 hours

 ConditionsComfort  
Time TempWeatherWind HumidityBarometerVisibility
6:45 AM
Aug 20
59 °FPassing clouds.6 mph100%29.85 "Hg10 mi
5:46 AM59 °FPassing clouds.5 mph100%29.84 "Hg10 mi
4:46 AM61 °FPassing clouds.10 mph94%29.83 "Hg10 mi
3:46 AM61 °FPassing clouds.12 mph94%29.83 "Hg10 mi
2:46 AM59 °FPassing clouds.10 mph100%29.82 "Hg10 mi
10:45 PM
Aug 19
63 °FClear.7 mph83%29.81 "Hg10 mi
9:45 PM64 °FClear.7 mph78%29.80 "Hg10 mi
8:45 PM66 °FSunny.9 mph73%29.77 "Hg10 mi
7:45 PM73 °FSunny.10 mph57%29.75 "Hg10 mi
6:45 PM77 °FSunny.12 mph51%29.74 "Hg10 mi
5:58 PM82 °FPassing clouds.13 mph40%29.73 "Hg10 mi
3:45 PM82 °FPassing clouds.12 mph40%29.74 "Hg10 mi
2:45 PM82 °FPassing clouds.9 mph40%29.77 "Hg10 mi
1:50 PM81 °FPassing clouds.9 mph42%29.79 "Hg10 mi
12:58 PM79 °FPassing clouds.8 mph45%29.80 "Hg10 mi
11:45 AM73 °FPassing clouds.9 mph57%29.82 "Hg10 mi
10:50 AM70 °FPassing clouds.9 mph64%29.84 "Hg10 mi
9:46 AM66 °FScattered clouds.8 mph68%29.84 "Hg10 mi
8:46 AM63 °FPassing clouds.10 mph77%29.84 "Hg10 mi
Weather by CustomWeather, © 2014

See weather overviewHow to use our weather pages